Time,TemperatureF,DewpointF,PressureIn,WindDirection,WindDirectionDegrees,WindSpeedMPH,WindSpeedGustMPH,Humidity,HourlyPrecipIn,Conditions,Clouds,dailyrainin,SolarRadiationWatts/m^2,SoftwareType,DateUTC
2013-02-01 00:00:00,29.2,17.1,29.79,NNW,337,0.0,1.0,60,0.00,,,0.74,0,LWC V2.00 B2112,2013-02-01 05:00:00,
2013-02-01 00:05:00,29.2,16.7,29.79,NNW,343,0.0,2.0,59,0.00,,,0.74,0,LWC V2.00 B2112,2013-02-01 05:05:00,
2013-02-01 00:10:00,29.1,16.6,29.79,NNW,343,1.0,2.0,59,0.00,,,0.74,0,LWC V2.00 B2112,2013-02-01 05:10:00,
2013-02-01 00:15:00,29.0,16.9,29.79,NNW,343,0.0,1.0,60,0.00,,,0.74,0,LWC V2.00 B2112,2013-02-01 05:15:00,
2013-02-01 00:20:00,29.0,16.9,29.79,NNW,343,1.0,2.0,60,0.00,,,0.00,0,LWC V2.00 B2112,2013-02-01 05:20:00,
2013-02-01 00:25:00,29.0,16.9,29.80,NNW,342,1.0,2.0,60,0.00,,,0.00,0,LWC V2.00 B2112,2013-02-01 05:25:00,
2013-02-01 00:30:00,28.9,16.8,29.80,NNW,343,0.0,1.0,60,0.00,,,0.00,0,LWC V2.00 B2112,2013-02-01 05:30:00,
2013-02-01 00:35:00,28.9,16.8,29.80,NNW,343,1.0,3.0,60,0.00,,,0.00,0,LWC V2.00 B2112,2013-02-01 05:35:00,
2013-02-01 00:40:00,28.9,16.8,29.80,NNW,343,0.0,2.0,60,0.00,,,0.00,0,LWC V2.00 B2112,2013-02-01 05:40:00,
2013-02-01 00:45:00,28.9,16.4,29.80,NNW,343,0.0,0.0,59,0.00,,,0.00,0,LWC V2.00 B2112,2013-02-01 05:45:00,
2013-02-01 00:50:00,28.8,16.7,29.80,NNW,343,0.0,1.0,60,0.00,,,0.00,0,LWC V2.00 B2112,2013-02-01 05:50:00,
2013-02-01 00:55:00,28.8,16.7,29.80,NNW,343,0.0,2.0,60,0.00,,,0.00,0,LWC V2.00 B2112,2013-02-01 05:55:00,
2013-02-01 01:00:00,28.7,16.6,29.80,NNW,343,0.0,1.0,60,0.00,,,0.00,0,LWC V2.00 B2112,2013-02-01 06:00:00,
2013-02-01 01:05:00,28.7,16.6,29.80,NNW,343,0.0,1.0,60,0.00,,,0.00,0,LWC V2.00 B2112,2013-02-01 06:05:00,
2013-02-01 01:10:00,28.7,17.0,29.80,NNW,343,0.0,1.0,61,0.00,,,0.00,0,LWC V2.00 B2112,2013-02-01 06:10:00,
2013-02-01 01:15:00,28.7,17.0,29.80,NNW,343,0.0,2.0,61,0.00,,,0.00,0,LWC V2.00 B2112,2013-02-01 06:15:00,
2013-02-01 01:20:00,28.7,17.0,29.80,NNW,343,0.0,3.0,61,0.00,,,0.00,0,LWC V2.00 B2112,2013-02-01 06:20:00,
2013-02-01 01:25:00,28.7,17.4,29.80,NNW,343,0.0,1.0,62,0.00,,,0.00,0,LWC V2.00 B2112,2013-02-01 06:25:00,
2013-02-01 01:30:00,28.7,17.0,29.80,NNW,343,0.0,3.0,61,0.00,,,0.00,0,LWC V2.00 B2112,2013-02-01 06:30:00,
2013-02-01 01:35:00,28.6,16.5,29.80,NNW,343,0.0,0.0,60,0.00,,,0.00,0,LWC V2.00 B2112,2013-02-01 06:35:00,
2013-02-01 01:40:00,28.5,16.4,29.80,NNW,343,0.0,1.0,60,0.00,,,0.00,0,LWC V2.00 B2112,2013-02-01 06:40:00,
2013-02-01 01:45:00,28.5,16.8,29.80,NNW,343,0.0,0.0,61,0.00,,,0.00,0,LWC V2.00 B2112,2013-02-01 06:45:00,
2013-02-01 01:49:00,28.5,17.5,29.80,NNW,343,0.0,0.0,63,0.00,,,0.00,0,LWC V2.00 B2112,2013-02-01 06:49:00,
2013-02-01 01:54:00,28.3,16.6,29.80,NNW,343,0.0,1.0,61,0.00,,,0.00,0,LWC V2.00 B2112,2013-02-01 06:54:00,
2013-02-01 02:00:00,28.3,17.0,29.80,NNW,343,0.0,0.0,62,0.00,,,0.00,0,LWC V2.00 B2112,2013-02-01 07:00:00,
2013-02-01 02:04:00,28.2,16.9,29.80,NNW,343,0.0,0.0,62,0.00,,,0.00,0,LWC V2.00 B2112,2013-02-01 07:04:00,
2013-02-01 02:09:00,28.1,16.4,29.80,NNW,343,0.0,2.0,61,0.00,,,0.00,0,LWC V2.00 B2112,2013-02-01 07:09:00,
2013-02-01 02:14:00,28.1,16.8,29.80,NNW,343,1.0,1.0,62,0.00,,,0.00,0,LWC V2.00 B2112,2013-02-01 07:14:00,
2013-02-01 02:19:00,28.1,16.4,29.80,NNW,343,0.0,2.0,61,0.00,,,0.00,0,LWC V2.00 B2112,2013-02-01 07:19:00,
2013-02-01 02:24:00,28.2,16.1,29.80,NNW,343,0.0,1.0,60,0.00,,,0.00,0,LWC V2.00 B2112,2013-02-01 07:24:00,
2013-02-01 02:29:00,28.2,16.5,29.80,NNW,343,0.0,0.0,61,0.00,,,0.00,0,LWC V2.00 B2112,2013-02-01 07:29:00,
2013-02-01 02:34:00,28.2,16.5,29.80,NNW,343,1.0,1.0,61,0.00,,,0.00,0,LWC V2.00 B2112,2013-02-01 07:34:00,
2013-02-01 02:39:00,28.2,16.5,29.80,NNW,343,0.0,0.0,61,0.00,,,0.00,0,LWC V2.00 B2112,2013-02-01 07:39:00,
2013-02-01 02:44:00,28.1,16.8,29.79,NNW,343,0.0,0.0,62,0.00,,,0.00,0,LWC V2.00 B2112,2013-02-01 07:44:00,
2013-02-01 02:49:00,28.1,16.8,29.79,NNW,343,0.0,1.0,62,0.00,,,0.00,0,LWC V2.00 B2112,2013-02-01 07:49:00,
2013-02-01 02:54:00,28.0,16.7,29.80,NNW,343,0.0,1.0,62,0.00,,,0.00,0,LWC V2.00 B2112,2013-02-01 07:54:00,
2013-02-01 02:59:00,27.9,16.6,29.79,NNW,343,0.0,0.0,62,0.00,,,0.00,0,LWC V2.00 B2112,2013-02-01 07:59:00,
2013-02-01 03:04:00,27.9,16.6,29.79,NNW,343,0.0,1.0,62,0.00,,,0.00,0,LWC V2.00 B2112,2013-02-01 08:04:00,
2013-02-01 03:09:00,27.8,16.5,29.79,NNW,343,0.0,0.0,62,0.00,,,0.00,0,LWC V2.00 B2112,2013-02-01 08:09:00,
2013-02-01 03:14:00,27.8,16.9,29.79,NNW,343,0.0,1.0,63,0.00,,,0.00,0,LWC V2.00 B2112,2013-02-01 08:14:00,
2013-02-01 03:19:00,27.7,16.4,29.79,NNW,343,0.0,1.0,62,0.00,,,0.00,0,LWC V2.00 B2112,2013-02-01 08:19:00,
2013-02-01 03:24:00,27.7,16.0,29.79,NNW,343,1.0,1.0,61,0.00,,,0.00,0,LWC V2.00 B2112,2013-02-01 08:24:00,
2013-02-01 03:29:00,27.7,16.4,29.79,NNW,343,0.0,1.0,62,0.00,,,0.00,0,LWC V2.00 B2112,2013-02-01 08:29:00,
2013-02-01 03:34:00,27.6,16.3,29.80,NNW,343,0.0,1.0,62,0.00,,,0.00,0,LWC V2.00 B2112,2013-02-01 08:34:00,
2013-02-01 03:39:00,27.6,16.7,29.80,NNW,343,0.0,1.0,63,0.00,,,0.00,0,LWC V2.00 B2112,2013-02-01 08:39:00,
2013-02-01 03:44:00,27.6,17.0,29.80,NNW,343,0.0,0.0,64,0.00,,,0.00,0,LWC V2.00 B2112,2013-02-01 08:44:00,
2013-02-01 03:49:00,27.5,16.2,29.79,NNW,343,0.0,1.0,62,0.00,,,0.00,0,LWC V2.00 B2112,2013-02-01 08:49:00,
2013-02-01 03:54:00,27.5,16.2,29.79,NNW,343,0.0,1.0,62,0.00,,,0.00,0,LWC V2.00 B2112,2013-02-01 08:54:00,
2013-02-01 03:59:00,27.5,16.6,29.79,NNW,343,0.0,1.0,63,0.00,,,0.00,0,LWC V2.00 B2112,2013-02-01 08:59:00,
2013-02-01 04:04:00,27.5,15.8,29.79,NNW,343,1.0,2.0,61,0.00,,,0.00,0,LWC V2.00 B2112,2013-02-01 09:04:00,
2013-02-01 04:09:00,27.5,15.8,29.80,NNW,343,0.0,2.0,61,0.00,,,0.00,0,LWC V2.00 B2112,2013-02-01 09:09:00,
2013-02-01 04:14:00,27.6,16.3,29.79,NNW,343,1.0,1.0,62,0.00,,,0.00,0,LWC V2.00 B2112,2013-02-01 09:14:00,
2013-02-01 04:19:00,27.6,16.3,29.80,NNW,343,0.0,0.0,62,0.00,,,0.00,0,LWC V2.00 B2112,2013-02-01 09:19:00,
2013-02-01 04:24:00,27.6,16.7,29.80,NNW,343,1.0,1.0,63,0.00,,,0.00,0,LWC V2.00 B2112,2013-02-01 09:24:00,
2013-02-01 04:29:00,27.6,16.3,29.80,NNW,343,0.0,1.0,62,0.00,,,0.00,0,LWC V2.00 B2112,2013-02-01 09:29:00,
2013-02-01 04:34:00,27.6,16.7,29.80,NNW,343,0.0,1.0,63,0.00,,,0.00,0,LWC V2.00 B2112,2013-02-01 09:34:00,
2013-02-01 04:39:00,27.6,16.7,29.80,NNW,343,0.0,2.0,63,0.00,,,0.00,0,LWC V2.00 B2112,2013-02-01 09:39:00,
2013-02-01 04:44:00,27.6,17.0,29.80,NNW,343,0.0,1.0,64,0.00,,,0.00,0,LWC V2.00 B2112,2013-02-01 09:44:00,
2013-02-01 04:49:00,27.6,16.7,29.81,NNW,343,0.0,1.0,63,0.00,,,0.00,0,LWC V2.00 B2112,2013-02-01 09:49:00,
2013-02-01 04:54:00,27.7,16.8,29.80,NNW,342,0.0,1.0,63,0.00,,,0.00,0,LWC V2.00 B2112,2013-02-01 09:54:00,
2013-02-01 04:59:00,27.7,16.8,29.80,NNW,342,1.0,3.0,63,0.00,,,0.00,0,LWC V2.00 B2112,2013-02-01 09:59:00,
2013-02-01 05:04:00,27.6,16.7,29.81,NNW,342,0.0,0.0,63,0.00,,,0.00,0,LWC V2.00 B2112,2013-02-01 10:04:00,
2013-02-01 05:09:00,27.6,16.7,29.81,NNW,342,0.0,1.0,63,0.00,,,0.00,0,LWC V2.00 B2112,2013-02-01 10:09:00,
2013-02-01 05:14:00,27.7,16.8,29.81,NNW,343,0.0,1.0,63,0.00,,,0.00,0,LWC V2.00 B2112,2013-02-01 10:14:00,
2013-02-01 05:19:00,27.7,16.8,29.81,NNW,343,0.0,1.0,63,0.00,,,0.00,0,LWC V2.00 B2112,2013-02-01 10:19:00,
2013-02-01 05:24:00,27.7,16.4,29.81,NNW,343,0.0,1.0,62,0.00,,,0.00,0,LWC V2.00 B2112,2013-02-01 10:24:00,
2013-02-01 05:29:00,27.7,16.8,29.81,NNW,343,0.0,1.0,63,0.00,,,0.00,0,LWC V2.00 B2112,2013-02-01 10:29:00,
2013-02-01 05:34:00,27.7,17.1,29.81,NNW,343,0.0,0.0,64,0.00,,,0.00,0,LWC V2.00 B2112,2013-02-01 10:34:00,
2013-02-01 05:39:00,27.7,16.8,29.82,NNW,343,0.0,0.0,63,0.00,,,0.00,0,LWC V2.00 B2112,2013-02-01 10:39:00,
2013-02-01 05:44:00,27.8,16.9,29.82,NNW,343,0.0,2.0,63,0.00,,,0.00,0,LWC V2.00 B2112,2013-02-01 10:44:00,
2013-02-01 05:49:00,27.8,16.9,29.82,NNW,343,0.0,1.0,63,0.00,,,0.00,0,LWC V2.00 B2112,2013-02-01 10:49:00,
2013-02-01 05:54:00,27.8,16.9,29.82,NNW,343,0.0,1.0,63,0.00,,,0.00,0,LWC V2.00 B2112,2013-02-01 10:54:00,
2013-02-01 05:59:00,27.9,17.0,29.82,NNW,343,0.0,0.0,63,0.00,,,0.00,0,LWC V2.00 B2112,2013-02-01 10:59:00,
2013-02-01 06:04:00,27.9,17.0,29.82,NNW,343,0.0,1.0,63,0.00,,,0.00,0,LWC V2.00 B2112,2013-02-01 11:04:00,
2013-02-01 06:09:00,27.9,17.3,29.82,NNW,343,0.0,1.0,64,0.00,,,0.00,0,LWC V2.00 B2112,2013-02-01 11:09:00,
2013-02-01 06:14:00,28.0,17.4,29.82,NNW,343,0.0,1.0,64,0.00,,,0.00,0,LWC V2.00 B2112,2013-02-01 11:14:00,
2013-02-01 06:19:00,28.0,17.1,29.82,NNW,343,0.0,1.0,63,0.00,,,0.00,0,LWC V2.00 B2112,2013-02-01 11:19:00,
2013-02-01 06:24:00,28.0,17.1,29.82,NNW,343,0.0,1.0,63,0.00,,,0.00,0,LWC V2.00 B2112,2013-02-01 11:24:00,
2013-02-01 06:29:00,28.0,17.1,29.82,NNW,343,0.0,0.0,63,0.00,,,0.00,0,LWC V2.00 B2112,2013-02-01 11:29:00,
2013-02-01 06:34:00,28.0,17.1,29.82,NNW,343,0.0,1.0,63,0.00,,,0.00,0,LWC V2.00 B2112,2013-02-01 11:34:00,
2013-02-01 06:39:00,28.0,17.8,29.82,NNW,343,0.0,0.0,65,0.00,,,0.00,0,LWC V2.00 B2112,2013-02-01 11:39:00,
2013-02-01 06:44:00,28.0,16.7,29.83,NNW,343,0.0,1.0,62,0.00,,,0.00,0,LWC V2.00 B2112,2013-02-01 11:44:00,
2013-02-01 06:49:00,28.0,17.1,29.83,NNW,343,0.0,0.0,63,0.00,,,0.00,0,LWC V2.00 B2112,2013-02-01 11:49:00,
2013-02-01 06:54:00,27.9,17.3,29.83,NNW,343,0.0,0.0,64,0.00,,,0.00,0,LWC V2.00 B2112,2013-02-01 11:54:00,
2013-02-01 06:59:00,27.9,17.3,29.83,NNW,333,1.0,2.0,64,0.00,,,0.00,0,LWC V2.00 B2112,2013-02-01 11:59:00,
2013-02-01 07:04:00,27.9,17.3,29.83,NNW,333,0.0,0.0,64,0.00,,,0.00,0,LWC V2.00 B2112,2013-02-01 12:04:00,
2013-02-01 07:09:00,28.0,17.4,29.83,NNW,333,0.0,0.0,64,0.00,,,0.00,0,LWC V2.00 B2112,2013-02-01 12:09:00,
2013-02-01 07:14:00,28.0,17.4,29.83,NNW,333,0.0,0.0,64,0.00,,,0.00,0,LWC V2.00 B2112,2013-02-01 12:14:00,
2013-02-01 07:19:00,28.0,17.1,29.83,NNW,333,0.0,0.0,63,0.00,,,0.00,0,LWC V2.00 B2112,2013-02-01 12:19:00,
2013-02-01 07:24:00,28.0,17.4,29.83,NNW,333,0.0,0.0,64,0.00,,,0.00,0,LWC V2.00 B2112,2013-02-01 12:24:00,
2013-02-01 07:29:00,28.1,17.9,29.83,NNW,333,0.0,0.0,65,0.00,,,0.00,0,LWC V2.00 B2112,2013-02-01 12:29:00,
2013-02-01 07:34:00,28.1,17.5,29.83,NNW,333,0.0,1.0,64,0.00,,,0.00,5,LWC V2.00 B2112,2013-02-01 12:34:00,
2013-02-01 07:39:00,28.1,17.5,29.83,NNW,333,0.0,0.0,64,0.00,,,0.00,5,LWC V2.00 B2112,2013-02-01 12:39:00,
2013-02-01 07:44:00,28.2,16.9,29.83,NNW,343,0.0,3.0,62,0.00,,,0.00,7,LWC V2.00 B2112,2013-02-01 12:44:00,
2013-02-01 07:49:00,28.3,17.3,29.83,NNW,343,0.0,1.0,63,0.00,,,0.00,11,LWC V2.00 B2112,2013-02-01 12:49:00,
2013-02-01 07:54:00,28.4,17.4,29.83,NNW,343,0.0,1.0,63,0.00,,,0.00,11,LWC V2.00 B2112,2013-02-01 12:54:00,
2013-02-01 07:59:00,28.5,17.5,29.84,NNW,343,0.0,0.0,63,0.00,,,0.00,11,LWC V2.00 B2112,2013-02-01 12:59:00,
2013-02-01 08:04:00,28.7,17.7,29.84,NNW,343,1.0,2.0,63,0.00,,,0.00,11,LWC V2.00 B2112,2013-02-01 13:04:00,
2013-02-01 08:09:00,28.8,17.1,29.84,NNW,343,0.0,1.0,61,0.00,,,0.00,9,LWC V2.00 B2112,2013-02-01 13:09:00,
2013-02-01 08:14:00,28.9,17.5,29.84,NNW,341,1.0,3.0,62,0.00,,,0.00,11,LWC V2.00 B2112,2013-02-01 13:14:00,
2013-02-01 08:19:00,29.0,17.3,29.84,NNW,343,0.0,0.0,61,0.00,,,0.00,14,LWC V2.00 B2112,2013-02-01 13:19:00,
2013-02-01 08:24:00,29.2,17.4,29.85,NNW,343,1.0,2.0,61,0.00,,,0.00,14,LWC V2.00 B2112,2013-02-01 13:24:00,
2013-02-01 08:29:00,29.3,16.8,29.85,NNW,343,1.0,3.0,59,0.00,,,0.00,14,LWC V2.00 B2112,2013-02-01 13:29:00,
2013-02-01 08:34:00,29.4,16.9,29.85,SSW,198,2.0,4.0,59,0.00,,,0.00,16,LWC V2.00 B2112,2013-02-01 13:34:00,
2013-02-01 08:39:00,29.5,17.0,29.85,SSW,213,3.0,4.0,59,0.00,,,0.00,16,LWC V2.00 B2112,2013-02-01 13:39:00,
2013-02-01 08:44:00,29.5,16.6,29.85,SSW,200,1.0,5.0,58,0.00,,,0.00,18,LWC V2.00 B2112,2013-02-01 13:44:00,
2013-02-01 08:49:00,29.6,17.4,29.85,SW,223,0.0,2.0,60,0.00,,,0.00,16,LWC V2.00 B2112,2013-02-01 13:49:00,
2013-02-01 08:54:00,29.6,17.1,29.85,SSE,159,4.0,5.0,59,0.00,,,0.00,18,LWC V2.00 B2112,2013-02-01 13:54:00,
2013-02-01 08:59:00,29.6,16.3,29.85,SSW,210,2.0,8.0,57,0.00,,,0.00,21,LWC V2.00 B2112,2013-02-01 13:59:00,
2013-02-01 09:00:00,29.6,15.9,29.85,NNE,25,1.0,6.0,56,0.00,,,0.00,19,LWC V2.00 B2112,2013-02-01 14:00:00,
2013-02-01 09:05:00,29.5,15.8,29.86,SSW,195,4.0,9.0,56,0.00,,,0.00,19,LWC V2.00 B2112,2013-02-01 14:05:00,
2013-02-01 09:10:00,29.4,15.7,29.85,SSW,202,0.0,6.0,56,0.00,,,0.00,25,LWC V2.00 B2112,2013-02-01 14:10:00,
2013-02-01 09:15:00,29.5,15.3,29.86,SSW,200,1.0,5.0,55,0.00,,,0.00,26,LWC V2.00 B2112,2013-02-01 14:15:00,
2013-02-01 09:20:00,29.5,14.1,29.86,West,275,3.0,7.0,52,0.00,,,0.00,25,LWC V2.00 B2112,2013-02-01 14:20:00,
2013-02-01 09:25:00,29.6,14.2,29.86,NNW,343,4.0,4.0,52,0.00,,,0.00,23,LWC V2.00 B2112,2013-02-01 14:25:00,
2013-02-01 09:30:00,29.6,13.3,29.86,NNW,343,0.0,3.0,50,0.00,,,0.00,32,LWC V2.00 B2112,2013-02-01 14:30:00,
2013-02-01 09:35:00,29.7,13.4,29.86,NNW,341,3.0,4.0,50,0.00,,,0.00,33,LWC V2.00 B2112,2013-02-01 14:35:00,
2013-02-01 09:40:00,29.8,13.5,29.87,SSE,153,3.0,8.0,50,0.00,,,0.00,39,LWC V2.00 B2112,2013-02-01 14:40:00,
2013-02-01 09:45:00,30.0,12.7,29.87,SSW,207,2.0,7.0,48,0.00,,,0.00,37,LWC V2.00 B2112,2013-02-01 14:45:00,
2013-02-01 09:50:00,29.9,13.1,29.87,West,276,2.0,5.0,49,0.00,,,0.00,37,LWC V2.00 B2112,2013-02-01 14:50:00,
2013-02-01 09:55:00,30.0,13.2,29.87,WNW,288,1.0,6.0,49,0.00,,,0.00,39,LWC V2.00 B2112,2013-02-01 14:55:00,
2013-02-01 10:00:00,30.0,13.2,29.87,WSW,254,0.0,2.0,49,0.00,,,0.00,42,LWC V2.00 B2112,2013-02-01 15:00:00,
2013-02-01 10:05:00,30.0,13.2,29.87,South,182,3.0,3.0,49,0.00,,,0.00,42,LWC V2.00 B2112,2013-02-01 15:05:00,
2013-02-01 10:10:00,30.1,13.3,29.87,South,183,1.0,4.0,49,0.00,,,0.00,42,LWC V2.00 B2112,2013-02-01 15:10:00,
2013-02-01 10:15:00,30.2,12.9,29.88,South,178,4.0,4.0,48,0.00,,,0.00,42,LWC V2.00 B2112,2013-02-01 15:15:00,
2013-02-01 10:20:00,30.1,12.3,29.88,WSW,240,4.0,5.0,47,0.00,,,0.00,39,LWC V2.00 B2112,2013-02-01 15:20:00,
2013-02-01 10:25:00,30.0,12.2,29.88,WSW,250,0.0,4.0,47,0.00,,,0.00,39,LWC V2.00 B2112,2013-02-01 15:25:00,
2013-02-01 10:30:00,30.1,13.7,29.88,SSE,161,3.0,3.0,50,0.00,,,0.00,37,LWC V2.00 B2112,2013-02-01 15:30:00,
2013-02-01 10:35:00,30.2,13.4,29.88,WNW,282,3.0,3.0,49,0.00,,,0.00,37,LWC V2.00 B2112,2013-02-01 15:35:00,
2013-02-01 10:40:00,30.1,12.3,29.88,SSW,200,3.0,6.0,47,0.00,,,0.00,39,LWC V2.00 B2112,2013-02-01 15:40:00,
2013-02-01 10:45:00,30.1,12.3,29.88,WSW,253,2.0,5.0,47,0.00,,,0.00,44,LWC V2.00 B2112,2013-02-01 15:45:00,
2013-02-01 10:50:00,30.1,11.4,29.88,SSE,157,4.0,7.0,45,0.00,,,0.00,42,LWC V2.00 B2112,2013-02-01 15:50:00,
2013-02-01 10:55:00,30.0,11.3,29.88,NNW,343,3.0,7.0,45,0.00,,,0.00,46,LWC V2.00 B2112,2013-02-01 15:55:00,
2013-02-01 11:00:00,30.1,10.9,29.87,SSW,208,4.0,8.0,44,0.00,,,0.00,53,LWC V2.00 B2112,2013-02-01 16:00:00,
2013-02-01 11:05:00,30.3,11.0,29.87,SW,223,1.0,7.0,44,0.00,,,0.00,51,LWC V2.00 B2112,2013-02-01 16:05:00,
2013-02-01 11:10:00,30.6,10.8,29.88,SW,236,9.0,10.0,43,0.00,,,0.00,51,LWC V2.00 B2112,2013-02-01 16:10:00,
2013-02-01 11:15:00,30.8,11.0,29.88,NW,309,5.0,10.0,43,0.00,,,0.00,47,LWC V2.00 B2112,2013-02-01 16:15:00,
2013-02-01 11:20:00,30.9,10.5,29.88,NW,304,3.0,6.0,42,0.00,,,0.00,44,LWC V2.00 B2112,2013-02-01 16:20:00,
2013-02-01 11:25:00,30.9,10.0,29.87,WSW,247,4.0,7.0,41,0.00,,,0.00,54,LWC V2.00 B2112,2013-02-01 16:25:00,
2013-02-01 11:30:00,31.2,10.8,29.87,NNE,22,5.0,7.0,42,0.00,,,0.00,53,LWC V2.00 B2112,2013-02-01 16:30:00,
2013-02-01 11:35:00,31.2,10.8,29.87,WSW,242,3.0,11.0,42,0.00,,,0.00,54,LWC V2.00 B2112,2013-02-01 16:35:00,
2013-02-01 11:40:00,31.5,10.5,29.87,SSW,213,4.0,9.0,41,0.00,,,0.00,49,LWC V2.00 B2112,2013-02-01 16:40:00,
2013-02-01 11:45:00,31.5,9.4,29.87,SSE,147,4.0,8.0,39,0.00,,,0.00,56,LWC V2.00 B2112,2013-02-01 16:45:00,
2013-02-01 11:50:00,31.5,10.0,29.87,SW,225,1.0,7.0,40,0.00,,,0.00,54,LWC V2.00 B2112,2013-02-01 16:50:00,
2013-02-01 11:55:00,31.5,10.0,29.88,SW,227,4.0,9.0,40,0.00,,,0.00,49,LWC V2.00 B2112,2013-02-01 16:55:00,
2013-02-01 12:00:00,31.2,8.6,29.87,NNE,22,4.0,9.0,38,0.00,,,0.00,54,LWC V2.00 B2112,2013-02-01 17:00:00,
2013-02-01 12:05:00,31.1,9.1,29.87,SE,140,4.0,7.0,39,0.00,,,0.00,47,LWC V2.00 B2112,2013-02-01 17:05:00,
2013-02-01 12:10:00,31.1,9.1,29.87,SSW,194,2.0,4.0,39,0.00,,,0.00,53,LWC V2.00 B2112,2013-02-01 17:10:00,
2013-02-01 12:15:00,31.1,9.1,29.87,NNE,22,4.0,6.0,39,0.00,,,0.00,54,LWC V2.00 B2112,2013-02-01 17:15:00,
2013-02-01 12:20:00,31.3,9.2,29.88,NW,321,2.0,7.0,39,0.00,,,0.00,47,LWC V2.00 B2112,2013-02-01 17:20:00,
2013-02-01 12:25:00,31.2,8.6,29.87,SW,220,3.0,11.0,38,0.00,,,0.00,44,LWC V2.00 B2112,2013-02-01 17:25:00,
2013-02-01 12:30:00,31.2,9.7,29.88,SW,230,3.0,5.0,40,0.00,,,0.00,56,LWC V2.00 B2112,2013-02-01 17:30:00,
2013-02-01 12:35:00,31.3,9.2,29.88,WSW,252,5.0,6.0,39,0.00,,,0.00,47,LWC V2.00 B2112,2013-02-01 17:35:00,
2013-02-01 12:40:00,31.5,10.0,29.88,SE,140,8.0,9.0,40,0.00,,,0.00,40,LWC V2.00 B2112,2013-02-01 17:40:00,
2013-02-01 12:45:00,31.8,10.8,29.87,South,188,1.0,3.0,41,0.00,,,0.00,53,LWC V2.00 B2112,2013-02-01 17:45:00,
2013-02-01 12:50:00,32.2,10.1,29.88,West,274,10.0,12.0,39,0.00,,,0.00,62,LWC V2.00 B2112,2013-02-01 17:50:00,
2013-02-01 12:55:00,32.0,8.7,29.88,SSE,162,9.0,9.0,37,0.00,,,0.00,54,LWC V2.00 B2112,2013-02-01 17:55:00,
2013-02-01 13:00:00,31.9,8.6,29.88,SSW,202,4.0,6.0,37,0.00,,,0.00,42,LWC V2.00 B2112,2013-02-01 18:00:00,
2013-02-01 13:05:00,31.8,8.5,29.89,SE,135,4.0,8.0,37,0.00,,,0.00,40,LWC V2.00 B2112,2013-02-01 18:05:00,
2013-02-01 13:10:00,31.6,7.1,29.89,West,267,4.0,6.0,35,0.00,,,0.00,47,LWC V2.00 B2112,2013-02-01 18:10:00,
2013-02-01 13:15:00,31.7,6.6,29.89,NNE,22,5.0,8.0,34,0.00,,,0.00,35,LWC V2.00 B2112,2013-02-01 18:15:00,
2013-02-01 13:20:00,31.7,7.8,29.89,NNW,333,5.0,5.0,36,0.00,,,0.00,44,LWC V2.00 B2112,2013-02-01 18:20:00,
2013-02-01 13:25:00,31.7,7.8,29.89,West,271,1.0,9.0,36,0.00,,,0.00,21,LWC V2.00 B2112,2013-02-01 18:25:00,
2013-02-01 13:30:00,31.8,7.9,29.90,WNW,285,6.0,13.0,36,0.00,,,0.00,25,LWC V2.00 B2112,2013-02-01 18:30:00,
2013-02-01 13:35:00,31.7,7.8,29.90,SSE,160,2.0,7.0,36,0.00,,,0.00,35,LWC V2.00 B2112,2013-02-01 18:35:00,
2013-02-01 13:40:00,31.7,5.9,29.90,SW,220,4.0,10.0,33,0.00,,,0.00,39,LWC V2.00 B2112,2013-02-01 18:40:00,
2013-02-01 13:45:00,31.5,5.7,29.90,SW,227,7.0,8.0,33,0.00,,,0.00,56,LWC V2.00 B2112,2013-02-01 18:45:00,
2013-02-01 13:50:00,31.6,6.5,29.90,SW,227,3.0,10.0,34,0.00,,,0.00,39,LWC V2.00 B2112,2013-02-01 18:50:00,
2013-02-01 13:55:00,32.0,6.2,29.90,NW,309,2.0,8.0,33,0.00,,,0.00,40,LWC V2.00 B2112,2013-02-01 18:55:00,
2013-02-01 14:00:00,32.4,7.2,29.90,NNW,342,5.0,8.0,34,0.00,,,0.00,33,LWC V2.00 B2112,2013-02-01 19:00:00,
2013-02-01 14:05:00,32.4,7.2,29.91,NNW,339,2.0,6.0,34,0.00,,,0.00,35,LWC V2.00 B2112,2013-02-01 19:05:00,
2013-02-01 14:10:00,32.1,6.3,29.91,SSW,209,6.0,6.0,33,0.00,,,0.00,23,LWC V2.00 B2112,2013-02-01 19:10:00,
2013-02-01 14:15:00,32.0,7.5,29.91,NNW,342,2.0,4.0,35,0.00,,,0.00,26,LWC V2.00 B2112,2013-02-01 19:15:00,
2013-02-01 14:20:00,32.0,5.5,29.92,WSW,250,2.0,7.0,32,0.00,,,0.00,32,LWC V2.00 B2112,2013-02-01 19:20:00,
2013-02-01 14:25:00,32.1,4.9,29.92,WSW,250,1.0,5.0,31,0.00,,,0.00,39,LWC V2.00 B2112,2013-02-01 19:25:00,
2013-02-01 14:30:00,32.3,7.1,29.92,NNW,342,1.0,6.0,34,0.00,,,0.00,32,LWC V2.00 B2112,2013-02-01 19:30:00,
2013-02-01 14:35:00,32.3,7.1,29.92,South,179,0.0,7.0,34,0.00,,,0.00,33,LWC V2.00 B2112,2013-02-01 19:35:00,
2013-02-01 14:40:00,32.1,6.9,29.93,NNW,342,2.0,5.0,34,0.00,,,0.00,37,LWC V2.00 B2112,2013-02-01 19:40:00,
2013-02-01 14:45:00,31.8,7.3,29.93,NNW,342,2.0,4.0,35,0.00,,,0.00,30,LWC V2.00 B2112,2013-02-01 19:45:00,
2013-02-01 14:50:00,31.6,7.7,29.93,WSW,246,1.0,11.0,36,0.00,,,0.00,21,LWC V2.00 B2112,2013-02-01 19:50:00,
2013-02-01 14:55:00,31.3,8.7,29.94,SW,236,5.0,7.0,38,0.00,,,0.00,21,LWC V2.00 B2112,2013-02-01 19:55:00,
2013-02-01 15:00:00,31.2,8.6,29.94,SW,215,3.0,7.0,38,0.00,,,0.00,14,LWC V2.00 B2112,2013-02-01 20:00:00,
2013-02-01 15:05:00,31.1,11.8,29.94,NNW,331,2.0,5.0,44,0.00,,,0.00,18,LWC V2.00 B2112,2013-02-01 20:05:00,
2013-02-01 15:10:00,31.2,10.8,29.94,NNW,342,2.0,8.0,42,0.00,,,0.00,25,LWC V2.00 B2112,2013-02-01 20:10:00,
2013-02-01 15:15:00,31.4,11.0,29.95,South,185,7.0,8.0,42,0.00,,,0.00,21,LWC V2.00 B2112,2013-02-01 20:15:00,
2013-02-01 15:20:00,31.3,10.4,29.96,NW,326,4.0,9.0,41,0.00,,,0.00,16,LWC V2.00 B2112,2013-02-01 20:20:00,
2013-02-01 15:25:00,30.8,11.5,29.97,SSW,212,1.0,7.0,44,0.00,,,0.00,14,LWC V2.00 B2112,2013-02-01 20:25:00,
2013-02-01 15:30:00,30.5,12.2,29.97,NNW,329,1.0,5.0,46,0.00,,,0.00,12,LWC V2.00 B2112,2013-02-01 20:30:00,
2013-02-01 15:35:00,30.3,13.5,29.97,SW,219,0.0,4.0,49,0.00,,,0.00,14,LWC V2.00 B2112,2013-02-01 20:35:00,
2013-02-01 15:41:00,30.3,13.9,29.97,NNE,22,1.0,3.0,50,0.00,,,0.00,12,LWC V2.00 B2112,2013-02-01 20:41:00,
2013-02-01 15:46:00,30.2,15.6,29.98,NNW,332,0.0,5.0,54,0.00,,,0.00,7,LWC V2.00 B2112,2013-02-01 20:46:00,
2013-02-01 15:51:00,29.5,17.7,29.99,SW,225,3.0,5.0,61,0.00,,,0.00,11,LWC V2.00 B2112,2013-02-01 20:51:00,
2013-02-01 15:56:00,28.9,18.6,29.99,South,186,3.0,4.0,65,0.00,,,0.00,14,LWC V2.00 B2112,2013-02-01 20:56:00,
2013-02-01 16:01:00,28.5,18.3,29.99,SSW,199,4.0,7.0,65,0.00,,,0.00,16,LWC V2.00 B2112,2013-02-01 21:01:00,
2013-02-01 16:06:00,28.5,18.3,30.00,South,174,0.0,3.0,65,0.00,,,0.00,23,LWC V2.00 B2112,2013-02-01 21:06:00,
2013-02-01 16:11:00,28.6,17.6,30.00,NNW,337,0.0,6.0,63,0.00,,,0.00,19,LWC V2.00 B2112,2013-02-01 21:11:00,
2013-02-01 16:16:00,28.7,16.6,30.00,East,86,2.0,7.0,60,0.00,,,0.00,18,LWC V2.00 B2112,2013-02-01 21:16:00,
2013-02-01 16:21:00,28.8,16.7,30.01,NNE,22,3.0,5.0,60,0.00,,,0.00,11,LWC V2.00 B2112,2013-02-01 21:21:00,
2013-02-01 16:26:00,28.4,19.9,30.02,South,178,3.0,9.0,70,0.00,,,0.00,0,LWC V2.00 B2112,2013-02-01 21:26:00,
2013-02-01 16:31:00,27.4,21.5,30.03,WSW,240,2.0,7.0,78,0.00,,,0.00,0,LWC V2.00 B2112,2013-02-01 21:31:00,
2013-02-01 16:36:00,26.6,21.9,30.02,WSW,242,0.0,1.0,82,0.00,,,0.00,9,LWC V2.00 B2112,2013-02-01 21:36:00,
2013-02-01 16:41:00,26.1,21.9,30.02,SW,220,3.0,3.0,84,0.00,,,0.00,7,LWC V2.00 B2112,2013-02-01 21:41:00,
2013-02-01 16:46:00,25.9,22.0,30.02,SW,220,0.0,4.0,85,0.00,,,0.00,5,LWC V2.00 B2112,2013-02-01 21:46:00,
2013-02-01 16:51:00,25.7,21.5,30.03,SW,216,1.0,3.0,84,0.00,,,0.00,0,LWC V2.00 B2112,2013-02-01 21:51:00,
2013-02-01 16:56:00,25.7,21.0,30.03,WNW,283,1.0,6.0,82,0.00,,,0.00,0,LWC V2.00 B2112,2013-02-01 21:56:00,
2013-02-01 17:01:00,25.8,20.5,30.04,West,268,1.0,6.0,80,0.00,,,0.00,0,LWC V2.00 B2112,2013-02-01 22:01:00,
2013-02-01 17:06:00,26.0,19.8,30.04,SE,141,3.0,10.0,77,0.00,,,0.00,0,LWC V2.00 B2112,2013-02-01 22:06:00,
2013-02-01 17:11:00,26.1,19.3,30.04,NNW,342,0.0,5.0,75,0.00,,,0.00,0,LWC V2.00 B2112,2013-02-01 22:11:00,
2013-02-01 17:16:00,26.2,18.4,30.05,SW,229,2.0,9.0,72,0.00,,,0.00,0,LWC V2.00 B2112,2013-02-01 22:16:00,
2013-02-01 17:21:00,26.2,17.8,30.05,NW,311,0.0,5.0,70,0.00,,,0.00,0,LWC V2.00 B2112,2013-02-01 22:21:00,
2013-02-01 17:26:00,26.3,17.9,30.05,SSW,211,5.0,6.0,70,0.00,,,0.00,0,LWC V2.00 B2112,2013-02-01 22:26:00,
2013-02-01 17:31:00,26.4,17.6,30.06,West,263,1.0,3.0,69,0.00,,,0.00,0,LWC V2.00 B2112,2013-02-01 22:31:00,
2013-02-01 17:36:00,26.5,17.0,30.06,WSW,257,0.0,2.0,67,0.00,,,0.00,0,LWC V2.00 B2112,2013-02-01 22:36:00,
2013-02-01 17:41:00,26.6,16.8,30.07,NNW,336,0.0,5.0,66,0.00,,,0.00,0,LWC V2.00 B2112,2013-02-01 22:41:00,
2013-02-01 17:46:00,26.6,16.8,30.07,SW,232,2.0,4.0,66,0.00,,,0.00,0,LWC V2.00 B2112,2013-02-01 22:46:00,
2013-02-01 17:51:00,26.6,16.1,30.07,South,174,0.0,4.0,64,0.00,,,0.00,0,LWC V2.00 B2112,2013-02-01 22:51:00,
2013-02-01 17:56:00,26.6,16.4,30.08,SW,214,4.0,6.0,65,0.00,,,0.00,0,LWC V2.00 B2112,2013-02-01 22:56:00,
2013-02-01 18:01:00,26.6,15.7,30.08,WNW,302,2.0,3.0,63,0.00,,,0.00,0,LWC V2.00 B2112,2013-02-01 23:01:00,
2013-02-01 18:06:00,26.7,15.8,30.08,WNW,303,0.0,3.0,63,0.00,,,0.00,0,LWC V2.00 B2112,2013-02-01 23:06:00,
2013-02-01 18:11:00,26.7,16.2,30.09,SSW,199,1.0,4.0,64,0.00,,,0.00,0,LWC V2.00 B2112,2013-02-01 23:11:00,
2013-02-01 18:16:00,26.7,16.2,30.09,West,265,2.0,4.0,64,0.00,,,0.00,0,LWC V2.00 B2112,2013-02-01 23:16:00,
2013-02-01 18:21:00,26.8,16.6,30.09,NW,304,4.0,5.0,65,0.00,,,0.00,0,LWC V2.00 B2112,2013-02-01 23:21:00,
2013-02-01 18:26:00,26.9,16.7,30.10,SW,221,1.0,2.0,65,0.00,,,0.00,0,LWC V2.00 B2112,2013-02-01 23:26:00,
2013-02-01 18:31:00,26.8,16.6,30.10,SW,219,0.0,1.0,65,0.00,,,0.00,0,LWC V2.00 B2112,2013-02-01 23:31:00,
2013-02-01 18:36:00,26.7,16.5,30.11,SSW,192,0.0,3.0,65,0.00,,,0.00,0,LWC V2.00 B2112,2013-02-01 23:36:00,
2013-02-01 18:41:00,26.7,16.5,30.11,SSW,205,2.0,4.0,65,0.00,,,0.00,0,LWC V2.00 B2112,2013-02-01 23:41:00,
2013-02-01 18:46:00,26.5,16.7,30.11,WNW,287,2.0,6.0,66,0.00,,,0.00,0,LWC V2.00 B2112,2013-02-01 23:46:00,
2013-02-01 18:51:00,26.4,17.0,30.12,SSW,212,1.0,3.0,67,0.00,,,0.00,0,LWC V2.00 B2112,2013-02-01 23:51:00,
2013-02-01 18:56:00,26.2,17.1,30.12,South,178,5.0,5.0,68,0.00,,,0.00,0,LWC V2.00 B2112,2013-02-01 23:56:00,
2013-02-01 19:01:00,26.1,17.3,30.12,SSW,202,6.0,7.0,69,0.00,,,0.00,0,LWC V2.00 B2112,2013-02-02 00:01:00,
2013-02-01 19:06:00,26.1,17.0,30.12,SSW,200,2.0,3.0,68,0.00,,,0.00,0,LWC V2.00 B2112,2013-02-02 00:06:00,
2013-02-01 19:11:00,26.1,17.0,30.12,SSW,192,0.0,4.0,68,0.00,,,0.00,0,LWC V2.00 B2112,2013-02-02 00:11:00,
2013-02-01 19:16:00,26.0,16.9,30.12,SW,219,3.0,5.0,68,0.00,,,0.00,0,LWC V2.00 B2112,2013-02-02 00:16:00,
2013-02-01 19:21:00,26.0,16.6,30.13,West,259,3.0,3.0,67,0.00,,,0.00,0,LWC V2.00 B2112,2013-02-02 00:21:00,
2013-02-01 19:26:00,26.0,16.9,30.13,WSW,240,2.0,2.0,68,0.00,,,0.00,0,LWC V2.00 B2112,2013-02-02 00:26:00,
2013-02-01 19:31:00,25.9,16.8,30.13,South,183,0.0,1.0,68,0.00,,,0.00,0,LWC V2.00 B2112,2013-02-02 00:31:00,
2013-02-01 19:36:00,25.8,16.7,30.14,SSW,193,1.0,5.0,68,0.00,,,0.00,0,LWC V2.00 B2112,2013-02-02 00:36:00,
2013-02-01 19:41:00,25.8,16.4,30.14,ESE,107,0.0,2.0,67,0.00,,,0.00,0,LWC V2.00 B2112,2013-02-02 00:41:00,
2013-02-01 19:46:00,25.8,16.7,30.14,WSW,245,2.0,6.0,68,0.00,,,0.00,0,LWC V2.00 B2112,2013-02-02 00:46:00,
2013-02-01 19:51:00,25.8,16.4,30.15,SSW,197,0.0,6.0,67,0.00,,,0.00,0,LWC V2.00 B2112,2013-02-02 00:51:00,
2013-02-01 19:56:00,25.8,16.7,30.15,WSW,237,0.0,2.0,68,0.00,,,0.00,0,LWC V2.00 B2112,2013-02-02 00:56:00,
2013-02-01 20:01:00,25.8,16.4,30.15,SSW,192,1.0,7.0,67,0.00,,,0.00,0,LWC V2.00 B2112,2013-02-02 01:01:00,
2013-02-01 20:06:00,25.8,16.0,30.15,SW,232,3.0,9.0,66,0.00,,,0.00,0,LWC V2.00 B2112,2013-02-02 01:06:00,
2013-02-01 20:11:00,25.9,15.4,30.15,SSE,165,2.0,5.0,64,0.00,,,0.00,0,LWC V2.00 B2112,2013-02-02 01:11:00,
2013-02-01 20:16:00,25.9,15.8,30.15,NNW,342,0.0,6.0,65,0.00,,,0.00,0,LWC V2.00 B2112,2013-02-02 01:16:00,
2013-02-01 20:21:00,25.8,15.7,30.16,West,267,3.0,5.0,65,0.00,,,0.00,0,LWC V2.00 B2112,2013-02-02 01:21:00,
2013-02-01 20:26:00,25.8,15.7,30.16,ESE,122,1.0,3.0,65,0.00,,,0.00,0,LWC V2.00 B2112,2013-02-02 01:26:00,
2013-02-01 20:30:00,25.8,15.7,30.16,SW,220,0.0,3.0,65,0.00,,,0.00,0,LWC V2.00 B2112,2013-02-02 01:30:00,
2013-02-01 20:35:00,25.7,15.9,30.16,South,181,2.0,6.0,66,0.00,,,0.00,0,LWC V2.00 B2112,2013-02-02 01:35:00,
2013-02-01 20:40:00,25.7,15.6,30.16,NW,309,3.0,3.0,65,0.00,,,0.00,0,LWC V2.00 B2112,2013-02-02 01:40:00,
2013-02-01 20:45:00,25.7,15.6,30.17,SSW,207,2.0,6.0,65,0.00,,,0.00,0,LWC V2.00 B2112,2013-02-02 01:45:00,
2013-02-01 20:50:00,25.7,15.6,30.17,SW,228,1.0,3.0,65,0.00,,,0.00,0,LWC V2.00 B2112,2013-02-02 01:50:00,
2013-02-01 20:55:00,25.7,15.9,30.17,South,175,0.0,8.0,66,0.00,,,0.00,0,LWC V2.00 B2112,2013-02-02 01:55:00,
2013-02-01 21:00:00,25.7,15.9,30.17,South,189,0.0,7.0,66,0.00,,,0.00,0,LWC V2.00 B2112,2013-02-02 02:00:00,
2013-02-01 21:05:00,25.6,15.8,30.17,WSW,241,0.0,2.0,66,0.00,,,0.00,0,LWC V2.00 B2112,2013-02-02 02:05:00,
2013-02-01 21:10:00,25.6,15.5,30.17,South,186,1.0,2.0,65,0.00,,,0.00,0,LWC V2.00 B2112,2013-02-02 02:10:00,
2013-02-01 21:15:00,25.6,15.8,30.18,South,186,1.0,1.0,66,0.00,,,0.00,0,LWC V2.00 B2112,2013-02-02 02:15:00,
2013-02-01 21:20:00,25.5,15.0,30.18,SW,231,0.0,1.0,64,0.00,,,0.00,0,LWC V2.00 B2112,2013-02-02 02:20:00,
2013-02-01 21:25:00,25.4,14.9,30.18,WNW,288,1.0,2.0,64,0.00,,,0.00,0,LWC V2.00 B2112,2013-02-02 02:25:00,
2013-02-01 21:30:00,25.4,14.2,30.18,NNW,328,4.0,5.0,62,0.00,,,0.00,0,LWC V2.00 B2112,2013-02-02 02:30:00,
2013-02-01 21:35:00,25.4,14.9,30.18,NNW,328,0.0,1.0,64,0.00,,,0.00,0,LWC V2.00 B2112,2013-02-02 02:35:00,
2013-02-01 21:40:00,25.3,14.1,30.19,NNW,327,1.0,3.0,62,0.00,,,0.00,0,LWC V2.00 B2112,2013-02-02 02:40:00,
2013-02-01 21:45:00,25.2,14.4,30.19,NNW,342,1.0,1.0,63,0.00,,,0.00,0,LWC V2.00 B2112,2013-02-02 02:45:00,
2013-02-01 21:50:00,25.1,14.3,30.19,South,175,1.0,3.0,63,0.00,,,0.00,0,LWC V2.00 B2112,2013-02-02 02:50:00,
2013-02-01 21:55:00,25.1,14.7,30.19,SW,217,1.0,2.0,64,0.00,,,0.00,0,LWC V2.00 B2112,2013-02-02 02:55:00,
2013-02-01 22:00:00,25.0,14.2,30.19,South,178,0.0,3.0,63,0.00,,,0.00,0,LWC V2.00 B2112,2013-02-02 03:00:00,
2013-02-01 22:05:00,24.9,14.1,30.20,South,180,0.0,3.0,63,0.00,,,0.00,0,LWC V2.00 B2112,2013-02-02 03:05:00,
2013-02-01 22:10:00,24.8,14.0,30.20,SW,223,0.0,3.0,63,0.00,,,0.00,0,LWC V2.00 B2112,2013-02-02 03:10:00,
2013-02-01 22:15:00,24.8,14.0,30.20,SW,214,0.0,1.0,63,0.00,,,0.00,0,LWC V2.00 B2112,2013-02-02 03:15:00,
2013-02-01 22:20:00,24.7,14.3,30.20,SW,214,0.0,3.0,64,0.00,,,0.00,0,LWC V2.00 B2112,2013-02-02 03:20:00,
2013-02-01 22:25:00,24.6,13.8,30.20,WNW,297,1.0,2.0,63,0.00,,,0.00,0,LWC V2.00 B2112,2013-02-02 03:25:00,
2013-02-01 22:30:00,24.5,13.4,30.20,SSW,199,0.0,2.0,62,0.00,,,0.00,0,LWC V2.00 B2112,2013-02-02 03:30:00,
2013-02-01 22:35:00,24.5,13.4,30.20,NW,321,0.0,3.0,62,0.00,,,0.00,0,LWC V2.00 B2112,2013-02-02 03:35:00,
2013-02-01 22:40:00,24.4,12.9,30.20,NW,321,0.0,3.0,61,0.00,,,0.00,0,LWC V2.00 B2112,2013-02-02 03:40:00,
2013-02-01 22:45:00,24.4,12.5,30.20,SW,223,1.0,5.0,60,0.00,,,0.00,0,LWC V2.00 B2112,2013-02-02 03:45:00,
2013-02-01 22:50:00,24.4,12.2,30.21,SSW,195,0.0,0.0,59,0.00,,,0.00,0,LWC V2.00 B2112,2013-02-02 03:50:00,
2013-02-01 22:55:00,24.3,12.8,30.21,SSW,195,0.0,1.0,61,0.00,,,0.00,0,LWC V2.00 B2112,2013-02-02 03:55:00,
2013-02-01 23:00:00,24.2,12.7,30.21,South,190,0.0,2.0,61,0.00,,,0.00,0,LWC V2.00 B2112,2013-02-02 04:00:00,
2013-02-01 23:05:00,24.1,13.0,30.22,South,190,0.0,0.0,62,0.00,,,0.00,0,LWC V2.00 B2112,2013-02-02 04:05:00,
2013-02-01 23:10:00,24.0,12.5,30.22,SW,234,0.0,1.0,61,0.00,,,0.00,0,LWC V2.00 B2112,2013-02-02 04:10:00,
2013-02-01 23:15:00,24.0,12.5,30.22,NNW,342,0.0,2.0,61,0.00,,,0.00,0,LWC V2.00 B2112,2013-02-02 04:15:00,
2013-02-01 23:20:00,24.0,12.5,30.22,NNW,342,0.0,1.0,61,0.00,,,0.00,0,LWC V2.00 B2112,2013-02-02 04:20:00,
2013-02-01 23:25:00,23.9,11.7,30.22,NNW,341,1.0,4.0,59,0.00,,,0.00,0,LWC V2.00 B2112,2013-02-02 04:25:00,
2013-02-01 23:30:00,23.9,12.1,30.22,NNW,340,1.0,4.0,60,0.00,,,0.00,0,LWC V2.00 B2112,2013-02-02 04:30:00,
2013-02-01 23:35:00,23.9,12.1,30.23,NNW,340,0.0,2.0,60,0.00,,,0.00,0,LWC V2.00 B2112,2013-02-02 04:35:00,
2013-02-01 23:40:00,23.8,12.0,30.23,NNW,340,1.0,3.0,60,0.00,,,0.00,0,LWC V2.00 B2112,2013-02-02 04:40:00,
2013-02-01 23:45:00,23.7,11.9,30.23,NNW,342,0.0,1.0,60,0.00,,,0.00,0,LWC V2.00 B2112,2013-02-02 04:45:00,
2013-02-01 23:50:00,23.6,11.4,30.23,NNW,342,0.0,2.0,59,0.00,,,0.00,0,LWC V2.00 B2112,2013-02-02 04:50:00,
2013-02-01 23:55:00,23.6,11.8,30.23,NNW,342,0.0,2.0,60,0.00,,,0.00,0,LWC V2.00 B2112,2013-02-02 04:55:00,